Location: Bakhuizen
(52.8696°N, 5.4575°E)
Time: 22:47:23
(UTC+00:00)

Cosmos 1833 - Pass Details

Date: 04 October 2021
Orbit: 834 x 864 km, 70.9° (Epoch: 24 October)

Event Time Altitude Azimuth Distance (km) Brightness Sun altitude
Rises 19:14:05 0° 315° (NW) 3,395 8.5 -19.7°
Reaches altitude 10° 19:18:08 10° 287° (WNW) 2,453 7.8 -20.2°
Maximum altitude 19:20:15 12° 265° (W) 2,294 7.3 -20.5°
Drops below altitude 10° 19:22:21 10° 242° (WSW) 2,446 7.1 -20.8°
Sets 19:26:24 0° 214° (SW) 3,376 7.5 -21.4°
